Weather History for Ames, IA

Change the Weather History Date:

Sunday, April 13, 2014

  Actual Average Record
Temperature  
Mean Temperature 45 °F 49 °F  
Max Temperature 57 °F 60 °F 89 °F (2006)
Min Temperature 32 °F 37 °F 21 °F (2004)
Degree Days  
Heating Degree Days 20 16  
Month to date heating degree days 252 242  
Since 1 July heating degree days 7169 6398  
Cooling Degree Days 0 0  
Month to date cooling degree days 4 0  
Year to date cooling degree days 4 0  
Moisture  
Dew Point 45 °F    
Average Humidity 96    
Maximum Humidity 100    
Minimum Humidity 92    
Precipitation  
Precipitation 2.70 in 0.11 in 2.70 in (2014)
Month to date precipitation 3.56 1.14  
Sea Level Pressure  
Sea Level Pressure 29.65 in    
Wind  
Wind Speed 20 mph (NNE)    
Max Wind Speed 39 mph    
Max Gust Speed 50 mph    
Visibility 3 miles    
Events Rain , Snow , Thunderstorm    
T = Trace of Precipitation, MM = Missing Value Source: NWS Daily Summary

Daily Weather History Graph

Daily Weather History Graph

Search for Another Location

Airport:

Trip Planner

Search our weather history database for the weather conditions in past years. The results will help you decide how hot, cold, wet, or windy it might be!

Date:

Astronomy

Apr. 13, 2014 Rise Set
Actual Time 6:37 AM CDT 7:53 PM CDT
Civil Twilight 6:08 AM CDT 8:22 PM CDT
Nautical Twilight 5:33 AM CDT 8:57 PM CDT
Astronomical Twilight 4:57 AM CDT 9:33 PM CDT
Moon 6:30 PM CDT (4/13) 5:38 AM CDT (4/13)
Length of Visible Light 14h 13m
Length of Day
13h 16m
Waxing Gibbous, 97% of the Moon is Illuminated
Apr 13
Waxing Gibbous
Apr 15
Full
Apr 22
Last Quarter
Apr 29
New
May 6
First Quarter

Hourly Weather History & Observations

Time (CDT) Temp. Windchill Dew Point Humidity Pressure Visibility Wind Dir Wind Speed Gust Speed Precip Events Conditions
12:04 AM 55.9 °F - 55.0 °F 97% 29.59 in 9.0 mi NNW 6.9 mph - 0.00 in   Mostly Cloudy
12:53 AM 57.0 °F - 55.0 °F 93% 29.64 in 6.0 mi SE 6.9 mph 17.3 mph 0.00 in   Mostly Cloudy
1:53 AM 55.9 °F - 54.0 °F 93% 29.60 in 6.0 mi NNE 6.9 mph - N/A Thunderstorm Overcast
2:20 AM 57.0 °F - 53.1 °F 87% 29.62 in 5.0 mi NNE 10.4 mph - 0.02 in Rain , Thunderstorm Light Thunderstorms and Rain
2:53 AM 55.0 °F - 53.1 °F 93% 29.62 in 5.0 mi North 10.4 mph - 0.06 in Rain Light Rain
3:14 AM 54.0 °F - 53.1 °F 97% 29.62 in 4.0 mi North 11.5 mph - 0.00 in Thunderstorm Mostly Cloudy
3:53 AM 55.0 °F - 53.1 °F 93% 29.59 in 4.0 mi North 9.2 mph - 0.00 in Thunderstorm Mostly Cloudy
4:05 AM 54.0 °F - 52.0 °F 93% 29.62 in 5.0 mi North 10.4 mph - N/A Thunderstorm Overcast
4:23 AM 53.1 °F - 51.1 °F 93% 29.63 in 4.0 mi North 10.4 mph - N/A Thunderstorm Overcast
4:39 AM 52.0 °F - 50.0 °F 93% 29.64 in 2.5 mi NNE 11.5 mph - 0.03 in Rain , Thunderstorm Rain
4:53 AM 51.1 °F - 48.9 °F 92% 29.62 in 2.5 mi North 9.2 mph - 0.04 in Rain , Thunderstorm Light Rain
5:26 AM 50.0 °F - 48.0 °F 93% 29.64 in 2.5 mi North 12.7 mph - 0.00 in   Overcast
5:30 AM 48.9 °F - 48.0 °F 97% 29.65 in 3.0 mi North 11.5 mph - 0.00 in   Overcast
5:53 AM 48.9 °F - 46.9 °F 93% 29.66 in 2.5 mi NNE 12.7 mph - 0.00 in Thunderstorm Overcast
6:06 AM 48.9 °F - 46.9 °F 93% 29.68 in 3.0 mi NE 8.1 mph - N/A   Overcast
6:15 AM 48.0 °F - 46.9 °F 96% 29.68 in 3.0 mi NNE 11.5 mph - N/A Thunderstorm Overcast
6:27 AM 48.0 °F - 46.0 °F 93% 29.69 in 3.0 mi NNE 12.7 mph - N/A Thunderstorm Overcast
6:38 AM 48.0 °F - 46.0 °F 93% 29.69 in 2.5 mi NNE 9.2 mph - N/A   Overcast
6:53 AM 48.0 °F - 46.0 °F 93% 29.68 in 2.5 mi NNE 10.4 mph - N/A   Overcast
7:00 AM 48.0 °F - 46.0 °F 93% 29.69 in 3.0 mi North 12.7 mph - N/A   Overcast
7:09 AM 46.9 °F - 46.0 °F 97% 29.69 in 2.0 mi North 13.8 mph - N/A   Overcast
7:21 AM 46.9 °F - 46.0 °F 97% 29.69 in 1.2 mi NNE 13.8 mph - N/A   Overcast
7:53 AM 46.9 °F - 45.0 °F 93% 29.66 in 1.2 mi North 18.4 mph - N/A   Overcast
8:21 AM 46.0 °F 38.5 °F 45.0 °F 96% 29.66 in 2.0 mi North 19.6 mph 26.5 mph N/A   Overcast
8:53 AM 46.0 °F 38.3 °F 44.1 °F 93% 29.67 in 2.0 mi North 20.7 mph 29.9 mph N/A   Overcast
9:24 AM 45.0 °F 38.2 °F 44.1 °F 97% 29.69 in 1.8 mi North 15.0 mph 24.2 mph N/A   Overcast
9:44 AM 45.0 °F 37.9 °F 44.1 °F 97% 29.70 in 2.0 mi NE 16.1 mph 21.9 mph N/A Thunderstorm Overcast
9:53 AM 45.0 °F 38.2 °F 44.1 °F 97% 29.71 in 2.5 mi NNE 15.0 mph - N/A Thunderstorm Overcast
10:03 AM 45.0 °F 38.2 °F 44.1 °F 97% 29.72 in 2.0 mi NNE 15.0 mph - 0.01 in Rain Light Rain
10:08 AM 45.0 °F 37.1 °F 44.1 °F 97% 29.72 in 1.8 mi NNE 19.6 mph 25.3 mph 0.01 in Rain , Thunderstorm Light Rain
10:23 AM 45.0 °F 37.4 °F 43.0 °F 93% 29.73 in 1.2 mi NNE 18.4 mph - 0.12 in Rain , Thunderstorm Heavy Thunderstorms and Rain
10:36 AM 45.0 °F 38.5 °F 43.0 °F 93% 29.72 in 1.2 mi NNE 13.8 mph - 0.23 in Rain Rain
10:53 AM 45.0 °F 37.9 °F 43.0 °F 93% 29.70 in 1.5 mi NNE 16.1 mph 25.3 mph 0.34 in Rain Heavy Rain
11:07 AM 44.1 °F 35.9 °F 43.0 °F 96% 29.67 in 2.0 mi NNE 19.6 mph 28.8 mph 0.11 in Rain Rain
11:20 AM 45.0 °F 37.9 °F 43.0 °F 93% 29.67 in 4.0 mi NNE 16.1 mph 25.3 mph 0.14 in Rain Light Rain
11:53 AM 45.0 °F 37.1 °F 43.0 °F 93% 29.66 in 4.0 mi NE 19.6 mph - 0.19 in Rain Light Rain
12:53 PM 45.0 °F 38.2 °F 43.0 °F 93% 29.65 in 2.5 mi NNE 15.0 mph 28.8 mph 0.16 in Rain Rain
1:04 PM 45.0 °F 37.4 °F 43.0 °F 93% 29.66 in 3.0 mi North 18.4 mph 24.2 mph 0.03 in Rain Rain
1:26 PM 45.0 °F 37.4 °F 43.0 °F 93% 29.65 in 2.0 mi North 18.4 mph 25.3 mph 0.17 in Rain Heavy Rain
1:48 PM 44.6 °F 36.9 °F 44.6 °F 100% 29.63 in 1.2 mi North 18.4 mph 26.5 mph 0.33 in Rain Heavy Rain
1:53 PM 44.1 °F 36.2 °F 44.1 °F 100% 29.64 in 1.5 mi North 18.4 mph 31.1 mph 0.36 in Rain Heavy Rain
2:05 PM 44.1 °F 35.0 °F 43.0 °F 96% 29.61 in 2.0 mi NNE 24.2 mph 31.1 mph 0.07 in Rain Rain
2:22 PM 45.0 °F 36.4 °F 44.1 °F 97% 29.62 in 4.0 mi North 23.0 mph 32.2 mph 0.12 in Rain Light Rain
2:53 PM 45.0 °F 36.4 °F 44.1 °F 97% 29.60 in 4.0 mi North 23.0 mph 32.2 mph 0.17 in Rain Light Rain
3:53 PM 45.0 °F 36.2 °F 44.1 °F 97% 29.59 in 2.5 mi NNE 24.2 mph 34.5 mph 0.14 in Rain Rain
4:09 PM 45.0 °F 35.2 °F 43.0 °F 93% 29.60 in 4.0 mi North 29.9 mph 36.8 mph 0.04 in Rain Light Rain
4:53 PM 44.1 °F 33.8 °F 43.0 °F 96% 29.59 in 5.0 mi North 31.1 mph 38.0 mph 0.11 in Rain Light Rain
5:45 PM 43.0 °F 33.5 °F 42.1 °F 97% 29.59 in 2.0 mi North 24.2 mph 38.0 mph 0.09 in Rain Rain
5:53 PM 43.0 °F 33.1 °F 42.1 °F 97% 29.60 in 2.0 mi North 26.5 mph 41.4 mph 0.12 in Rain Rain
6:00 PM 43.0 °F 32.9 °F 42.1 °F 97% 29.60 in 1.5 mi North 27.6 mph 36.8 mph 0.05 in Rain Rain
6:16 PM 43.0 °F 34.2 °F 42.1 °F 97% 29.60 in 2.0 mi North 20.7 mph 39.1 mph 0.13 in Rain Rain
6:29 PM 42.1 °F 32.3 °F 41.0 °F 96% 29.61 in 3.0 mi North 24.2 mph 35.7 mph 0.18 in Rain Light Rain
7:03 PM 41.0 °F 31.1 °F 41.0 °F 100% 29.62 in 2.5 mi North 23.0 mph 34.5 mph 0.06 in Rain Rain
7:25 PM 39.9 °F 29.5 °F 39.0 °F 97% 29.63 in 3.0 mi North 24.2 mph 38.0 mph 0.15 in Rain Rain
7:37 PM 39.9 °F 28.8 °F 39.0 °F 97% 29.63 in 5.0 mi North 27.6 mph 36.8 mph 0.18 in Rain Light Rain
7:50 PM 39.2 °F 27.2 °F 37.4 °F 93% 29.62 in 5.0 mi North 31.1 mph 40.3 mph 0.21 in Rain Light Rain
7:53 PM 39.0 °F 26.8 °F 37.9 °F 96% 29.63 in 5.0 mi North 32.2 mph 40.3 mph 0.21 in Rain Light Rain
8:53 PM 37.0 °F 24.3 °F 36.0 °F 96% 29.65 in 7.0 mi North 31.1 mph 46.0 mph 0.12 in   Overcast
9:53 PM 36.0 °F 23.9 °F - N/A% 29.68 in 4.0 mi North 25.3 mph 42.6 mph 0.03 in Snow Light Snow
10:25 PM 35.1 °F 22.0 °F - N/A% 29.68 in 3.0 mi North 28.8 mph 43.7 mph 0.08 in Snow Light Snow
10:53 PM 34.0 °F 20.3 °F 33.1 °F 96% 29.70 in 2.5 mi North 29.9 mph 40.3 mph 0.15 in Snow Light Snow
11:08 PM 33.1 °F 19.6 °F 33.1 °F 100% 29.70 in 1.8 mi North 27.6 mph 35.7 mph 0.03 in Snow Light Snow
11:53 PM 33.1 °F 19.6 °F 33.1 °F 100% 29.75 in 1.0 mi North 27.6 mph 41.4 mph 0.10 in Snow Light Snow